SCP
0 0 0 0 0 0 0 -0 -0 -0 0 0 0 0 0 0 0 0 0 0 -0 -1 -0 -0 -0 -0 -0 -0 0 0 -0 0 0 -0 -0 -0 -0 -0 -0 -0 -0 -0 -0 -0 -0 -0 -0 -0 -0
0 0 0 0 0 0 0 0 -0 0 0 0 0 0 0 0 0 0 0 0 -0 -0 -0 -0 -0 -0 -0 -0 0 0 0 0 -0 -0 -0 -0 -0 -0 -0 -0 -0 -0 -0 -0 -0 -0 -0 -0 0
0 0 0 0 0 0 0 -0 0 0 0 0 0 0 0 0 0 0 0 0 -0 -0 -0 -0 -1 -0 -0 -0 -0 0 0 0 0 -0 -0 -0 -0 -0 -0 -0 -0 -0 -0 -0 -0 0 0 0 0
0 0 0 0 0 0 0 0 0 0 0 -0 0 0 0 0 0 0 0 1 0 0 0 -0 -0 -0 -0 -0 -0 -0 -0 0 0 -0 -0 -0 -0 0 0 0 0 0 0 0 0 0 0 0 0
0 0 0 0 0 0 0 0 0 0 0 0 0 0 -0 0 0 0 0 2 0 1 1 0 -0 -0 -0 -0 -0 -0 0 0 -0 -0 -0 -0 0 0 0 0 0 0 0 0 0 0 0 0 0
0 0 0 0 0 0 0 -0 0 0 0 0 0 0 0 0 0 0 0 1 1 1 1 1 1 0 0 0 0 -0 -0 -0 -0 -0 -0 -0 -0 0 0 0 0 0 0 0 0 0 0 0 0
0 0 0 0 0 0 0 0 0 0 0 0 0 0 0 0 -0 -0 -0 1 1 1 1 2 1 1 1 0 0 0 -0 -0 -0 -0 -0 -0 -0 0 0 0 0 0 0 0 0 0 0 0 0
0 0 0 0 0 0 0 0 0 0 0 0 0 0 0 0 0 0 0 1 1 0 1 1 1 2 1 1 0 0 0 0 0 -0 -0 0 0 0 0 0 0 0 0 0 0 0 0 0 0
0 0 0 0 0 0 0 0 0 0 0 0 0 0 0 0 0 0 0 0 2 2 1 0 1 1 1 1 1 1 0 0 0 0 0 0 0 0 0 0 0 0 0 0 0 0 0 0 0
0 0 0 0 0 0 0 0 0 0 0 0 0 0 0 0 0 0 0 0 3 3 2 1 1 1 1 2 1 1 1 1 1 0 0 0 0 0 0 0 0 0 0 0 0 0 0 0 0
0 0 0 0 0 0 0 0 0 0 0 0 0 0 0 0 0 0 0 0 0 2 3 2 1 1 1 2 2 2 2 1 1 1 0 0 0 0 0 0 0 0 0 0 0 0 0 0 0
0 0 0 0 0 0 0 0 0 0 0 0 0 0 0 0 0 0 0 0 0 1 3 2 2 1 0 3 2 2 2 1 1 1 0 0 0 0 0 0 0 0 0 0 0 0 0 0 0
0 0 0 -0 -0 -0 -0 -0 0 0 0 0 0 0 0 0 0 0 0 0 0 0 1 2 2 2 1 3 2 2 2 1 1 1 0 0 0 0 0 0 0 0 0 0 0 0 0 0 0
0 -0 -0 -0 -0 -0 -0 0 0 0 0 0 0 -0 0 0 0 0 0 0 0 0 0 1 2 2 2 3 2 1 1 1 1 1 1 0 0 0 0 0 0 0 0 0 0 0 0 0 0
-0 -0 -0 -0 0 0 0 0 0 0 0 0 0 0 0 0 0 0 0 0 0 0 0 0 2 3 3 3 2 1 1 1 1 1 1 1 0 0 0 0 0 0 0 0 0 -0 0 0 0
0 0 0 0 0 0 0 0 0 0 0 0 0 0 0 0 0 0 0 0 0 0 0 0 3 3 3 2 3 1 1 0 0 0 1 1 0 0 0 0 0 0 0 0 0 0 0 0 0
0 0 -0 -0 -0 0 0 0 0 0 0 0 0 0 0 0 0 0 0 0 0 0 0 0 0 3 3 3 3 2 3 2 1 1 1 1 0 1 0 0 0 0 0 0 0 0 0 0 0
0 -0 -0 0 0 0 0 0 0 0 0 0 0 0 0 0 0 0 0 0 0 0 0 0 0 0 4 4 2 2 1 2 2 1 2 1 0 1 0 0 0 0 0 0 0 0 0 0 0
0 0 0 0 0 0 0 0 -0 0 0 0 0 0 0 0 0 0 0 0 0 0 0 0 0 0 2 7 4 2 1 1 1 2 2 1 1 1 0 0 0 0 0 0 0 0 0 0 0
0 0 0 0 0 0 0 0 0 0 0 0 0 0 0 0 0 0 0 0 0 0 0 0 0 0 0 6 6 3 2 1 1 2 2 1 1 0 1 0 1 0 0 0 0 0 0 0 0
0 0 0 0 0 0 0 0 0 0 0 0 0 0 0 0 0 0 0 0 0 0 0 0 1 1 1 2 6 4 2 1 1 1 1 1 1 0 1 0 1 0 0 0 1 0 0 0 1
0 0 0 0 0 0 0 0 0 0 0 0 0 0 0 -0 0 0 0 0 0 0 0 1 1 1 2 2 5 4 3 2 1 1 1 1 1 1 2 1 1 0 0 0 1 1 1 0 0
0 0 0 0 0 0 0 0 0 0 -0 -0 0 -0 0 -0 0 0 0 0 0 0 0 1 1 1 1 1 2 3 3 3 2 1 1 1 1 2 2 1 2 1 1 1 1 1 1 1 0
0 0 0 0 0 0 0 0 -0 0 -0 -0 -0 0 -0 -0 -0 0 0 0 0 0 0 1 1 1 1 1 1 4 3 3 2 1 1 2 1 2 2 2 1 3 1 1 1 1 1 1 0
0 0 0 0 0 0 0 0 0 0 0 -0 -0 0 0 0 0 0 0 0 0 0 0 0 1 1 1 1 2 1 3 3 2 1 1 1 2 1 2 1 0 3 1 1 1 1 1 0 0
0 0 0 0 0 0 0 0 0 0 0 0 0 0 0 0 0 -0 0 0 0 0 0 0 0 1 2 1 2 1 3 4 4 2 1 1 1 2 1 1 1 2 1 2 2 1 0 0 0
0 0 0 0 0 0 0 0 0 0 -0 0 0 0 0 0 -0 -0 0 0 0 0 0 0 0 1 2 2 3 3 3 4 3 2 1 1 2 2 2 1 1 2 1 2 1 0 0 0 0
0 0 0 0 0 0 0 0 0 -0 -0 -0 -0 -0 0 0 -0 0 0 0 0 0 0 0 0 0 1 2 2 2 2 2 2 1 1 1 1 0 0 0 1 2 2 0 0 0 0 0 0
0 0 0 0 0 0 -0 -0 0 -0 0 -0 -0 0 0 0 0 0 0 0 0 0 0 0 0 0 0 0 1 2 1 2 2 1 1 1 0 0 0 0 0 0 0 0 0 0 0 0 0
0 0 0 0 -0 0 -0 -0 -0 0 -0 0 0 0 0 0 0 0 0 0 0 0 0 0 0 0 0 0 0 -0 1 1 1 2 1 1 0 0 0 0 0 0 0 0 0 0 0 0 0
Wind_Speed_500mb
8 6 7 16 7 7 9 18 18 20 7 22 33 43 38 40 13 13 11 23 7 6 16 33 31 32 33 29 28 28 24 19 29 34 36 37 38 40 45 47 42 38 33 27 26 24 21 18 15
6 3 6 10 6 1 12 18 9 13 24 36 36 57 45 24 43 23 12 17 8 7 18 36 34 34 33 31 28 27 25 19 21 32 36 39 40 40 43 43 41 36 30 26 25 20 17 13 11
5 6 6 8 7 10 11 4 3 10 23 24 14 32 23 17 23 13 15 12 10 4 9 35 37 36 35 32 28 27 25 22 23 29 34 36 40 41 41 41 39 34 28 23 19 15 12 10 9
11 5 11 2 17 23 20 23 3 9 17 19 23 16 25 20 16 16 16 16 8 16 10 35 42 37 37 34 30 28 27 23 20 26 30 34 37 39 38 38 37 33 27 20 13 9 7 7 7
8 10 3 6 17 21 28 39 9 9 9 31 27 15 32 32 35 20 25 21 19 24 18 19 41 38 37 36 32 30 29 26 22 24 29 32 34 35 35 34 33 30 25 18 11 8 6 4 3
9 6 6 8 18 17 16 13 18 16 28 47 39 17 24 36 29 15 6 8 9 14 16 17 40 42 39 38 36 32 31 30 26 25 28 31 34 36 36 35 32 28 24 18 14 11 8 6 5
10 3 11 16 21 20 22 51 22 18 28 27 24 6 29 25 22 15 4 4 5 16 17 22 30 46 43 40 39 36 35 33 31 30 30 32 35 37 36 35 33 30 24 19 15 13 10 7 6
8 7 12 12 15 18 31 51 55 55 15 31 31 10 6 15 23 22 4 7 9 9 15 19 28 41 48 45 43 40 37 36 34 33 32 33 36 38 37 36 35 31 26 20 17 15 12 9 7
10 6 8 9 13 15 38 25 52 42 45 36 28 24 32 39 40 24 20 15 17 21 20 15 27 34 47 50 47 45 42 39 38 37 35 36 38 40 39 38 35 31 27 23 19 16 14 11 5
7 4 11 9 8 12 33 21 32 24 36 35 39 36 36 39 37 36 32 28 28 30 27 25 25 32 47 59 55 51 48 47 44 43 42 39 39 40 40 41 38 34 29 25 22 19 16 10 4
3 4 18 35 14 18 27 30 29 18 9 34 43 46 47 49 46 41 24 16 36 40 40 33 31 29 35 58 58 55 54 52 50 47 45 42 42 42 42 44 43 39 35 29 24 21 15 10 9
6 24 31 32 24 24 15 48 26 26 33 37 42 43 42 48 51 52 46 31 24 26 41 30 40 43 33 54 53 57 58 57 56 52 50 48 48 44 46 45 42 39 34 31 26 21 15 13 15
15 18 45 44 49 47 46 39 40 42 39 40 39 44 49 51 49 51 52 48 43 33 19 35 44 51 48 52 51 49 57 59 58 56 54 53 53 48 42 42 34 27 35 33 27 21 17 8 18
32 41 42 54 60 65 36 44 49 48 45 47 49 53 59 52 49 44 49 56 55 50 30 29 35 42 56 65 57 60 51 56 57 60 58 57 59 54 45 40 36 20 19 30 16 22 14 14 13
43 29 32 48 49 23 29 13 12 38 46 50 60 62 50 41 51 55 49 55 54 60 55 57 49 41 51 71 67 56 64 51 56 59 59 58 63 60 53 45 40 28 22 24 20 16 15 19 21
27 17 17 18 20 30 25 16 21 56 60 63 65 63 59 50 48 56 51 53 52 49 48 58 57 46 45 62 69 64 58 57 51 52 54 52 64 65 56 51 48 36 32 27 32 28 33 29 21
13 11 19 20 27 22 19 37 31 51 46 43 47 53 54 56 63 61 57 56 55 56 57 46 62 57 45 54 61 71 69 69 65 59 57 52 60 74 59 58 59 47 36 48 43 39 35 25 26
13 16 15 27 26 28 21 21 30 44 52 54 61 67 71 72 74 65 64 69 62 59 61 58 54 55 52 50 60 68 75 60 65 72 71 61 60 80 67 59 61 54 48 52 54 48 41 28 22
12 18 26 33 17 26 28 35 48 46 56 61 70 74 76 81 82 81 83 70 71 64 65 57 51 59 59 55 64 63 82 87 66 78 86 70 66 68 77 66 65 59 63 56 49 40 41 38 28
18 26 22 23 27 28 27 41 50 42 41 35 45 45 45 32 47 79 78 77 71 78 77 70 73 61 67 63 67 70 69 81 76 68 78 78 72 65 77 75 72 63 66 61 51 44 42 36 36
24 20 12 19 31 33 24 38 37 33 21 42 53 57 61 53 46 54 66 74 74 69 69 75 74 72 66 65 62 63 67 72 88 81 68 77 77 75 69 79 79 69 67 63 55 47 46 46 36
29 13 18 25 25 34 6 29 36 15 23 31 49 69 76 74 45 40 56 68 76 75 77 74 68 69 66 65 60 61 71 79 80 100 84 68 82 76 67 71 74 65 70 58 59 51 51 43 45
13 18 18 24 30 19 28 14 14 14 15 28 28 66 88 71 53 31 42 49 69 67 77 69 65 62 65 63 54 60 67 72 67 80 98 80 79 84 74 68 77 70 68 57 58 54 49 48 37
41 29 36 13 12 16 5 3 8 9 11 12 38 53 55 73 65 44 32 34 51 66 67 73 66 66 63 60 60 63 70 67 65 74 82 95 76 73 73 59 76 74 63 59 54 55 45 52 41
28 19 14 10 7 14 10 18 12 16 22 16 18 48 48 70 68 66 57 35 46 51 53 73 68 66 63 64 63 53 70 68 64 66 77 76 79 71 73 75 76 75 68 68 55 57 48 51 48
19 10 6 11 5 29 27 11 6 7 36 49 28 58 50 60 55 50 65 46 18 49 31 28 72 74 66 68 58 52 57 61 59 58 65 69 68 65 78 71 86 85 68 69 62 57 55 55 46
14 11 3 4 9 9 10 3 4 23 27 28 32 42 48 48 46 45 53 51 37 39 32 37 16 68 69 71 59 54 51 53 50 43 50 57 61 69 72 71 76 83 74 68 68 64 60 53 54
29 13 4 3 7 11 10 12 5 7 7 10 11 26 44 50 57 55 37 34 33 52 33 31 16 5 50 61 58 53 41 44 40 38 44 46 51 64 65 63 64 79 77 72 61 63 57 54 51
26 5 5 7 6 5 11 8 14 14 8 12 8 38 51 59 61 57 59 44 43 51 31 11 27 4 4 64 55 48 45 36 26 30 39 36 44 44 56 57 47 60 84 65 58 62 55 53 51
24 1 30 5 17 10 13 32 22 3 25 22 22 37 49 56 76 70 60 57 51 50 35 29 16 14 9 15 6 29 39 27 21 23 32 37 35 35 37 40 40 40 47 49 67 62 56 54 50
Wind_Direction_500mb
261 305 347 311 38 83 263 262 250 357 42 41 66 88 82 48 62 129 98 39 3 301 181 174 165 158 159 162 156 150 149 145 142 146 148 152 151 152 155 157 156 153 149 143 145 140 138 141 137
312 140 284 276 111 304 269 250 71 61 35 30 52 95 73 77 94 75 125 32 40 155 167 180 175 165 166 166 164 157 152 154 148 152 156 156 155 157 160 163 163 161 157 147 144 143 144 145 141
37 347 313 161 195 214 249 231 266 93 87 52 42 65 83 104 84 99 97 35 177 206 189 191 182 174 171 170 169 163 161 163 154 161 163 163 161 162 165 168 168 168 166 158 149 141 145 150 149
26 276 256 72 270 268 251 285 122 25 78 86 73 64 75 102 93 114 111 80 221 182 162 189 187 181 175 175 174 169 168 170 166 166 172 171 169 168 170 172 174 176 177 175 169 156 153 159 157
323 276 246 261 264 266 277 270 148 95 18 76 77 77 114 107 100 82 94 66 164 168 175 167 197 191 183 179 179 177 174 176 175 174 177 178 176 175 175 179 184 185 186 190 196 191 199 194 195
304 240 0 270 267 277 305 24 88 53 31 37 34 78 93 112 105 74 83 161 183 200 186 187 198 202 194 184 183 183 180 179 182 182 182 185 183 182 183 186 189 193 198 203 205 209 218 210 226
188 78 245 275 285 305 13 2 32 36 29 36 43 70 109 96 94 75 11 146 226 250 226 217 200 201 203 194 188 188 187 185 186 187 187 188 189 189 191 191 192 195 199 207 215 221 223 223 249
314 103 304 276 284 292 9 360 14 10 7 7 27 28 346 49 17 0 348 267 226 268 266 208 206 205 208 205 194 192 192 192 193 194 192 191 193 196 197 198 198 199 204 213 217 221 227 242 252
271 38 272 312 20 307 4 7 353 350 356 349 342 328 314 314 317 283 293 277 238 227 243 232 220 219 217 212 203 195 195 196 198 198 197 196 197 200 202 205 206 210 214 217 214 219 229 232 248
144 114 261 351 358 353 332 360 334 345 333 329 323 316 306 305 308 300 260 248 241 236 244 247 242 224 223 211 211 199 197 199 200 201 201 201 202 205 207 210 211 216 218 218 217 217 223 231 208
22 288 299 316 349 342 313 313 319 323 315 315 312 312 309 305 301 309 309 256 251 251 235 229 238 226 220 209 212 207 202 202 203 205 206 205 206 207 210 214 213 215 216 218 217 221 226 230 219
17 315 301 275 313 317 298 308 300 294 287 297 303 306 299 297 295 292 290 280 288 263 237 224 214 220 218 220 215 215 210 206 207 207 207 207 210 206 216 216 217 220 222 220 218 226 237 235 197
344 312 315 319 307 298 293 269 265 268 275 286 282 278 281 277 276 280 281 276 270 264 238 230 216 215 214 217 222 223 221 216 212 212 211 208 211 209 220 219 216 227 231 224 222 221 198 184 208
298 301 306 299 289 285 268 265 258 256 263 270 267 260 266 266 266 264 270 272 261 260 250 234 222 229 218 210 220 227 229 226 221 219 216 210 208 212 216 220 211 212 214 207 200 206 205 220 260
295 296 289 279 275 272 318 315 263 278 286 271 255 257 267 264 255 253 257 266 262 250 244 257 237 229 229 218 225 225 228 230 225 222 220 213 206 207 210 219 214 212 184 186 191 195 221 231 252
275 274 280 279 350 330 359 281 298 318 313 311 308 301 292 287 287 256 243 250 262 255 249 243 240 230 225 225 225 214 216 228 226 225 222 213 209 203 209 213 210 213 214 203 197 203 221 235 192
273 268 319 320 346 324 328 302 296 298 296 300 308 307 301 293 280 271 250 240 244 256 254 242 228 240 235 237 236 225 210 220 222 223 225 219 211 202 208 213 207 204 211 199 200 207 218 228 191
317 329 313 307 307 292 303 302 314 327 322 309 301 296 290 284 280 278 275 250 238 243 248 246 230 229 239 237 240 236 218 215 220 220 223 224 216 206 206 210 201 204 206 211 216 222 209 198 171
321 304 288 290 310 354 332 318 306 315 302 289 284 277 270 265 267 268 266 265 239 233 235 242 239 235 230 231 236 236 230 219 217 213 219 222 217 215 211 206 205 205 208 216 217 205 201 202 214
296 276 294 304 337 326 322 300 292 293 282 313 312 315 286 291 296 266 256 255 245 233 231 237 241 233 229 238 242 243 241 231 221 216 220 217 216 220 218 208 204 206 207 211 213 202 201 206 214
293 301 302 312 319 295 289 277 290 288 311 315 303 296 304 292 291 298 263 248 248 243 239 234 237 230 229 231 242 244 244 241 231 222 224 219 217 220 222 212 205 206 210 211 207 203 206 205 207
285 303 324 315 312 292 26 307 310 344 348 338 326 337 331 298 284 320 269 246 244 243 240 233 229 228 223 224 239 239 242 234 234 226 224 220 223 215 220 216 208 211 213 210 202 205 212 208 211
305 323 322 318 303 321 309 269 322 351 336 342 341 342 351 317 304 338 317 326 247 234 233 223 222 222 220 223 243 240 241 238 242 239 226 220 217 210 218 217 208 212 218 217 202 209 210 209 203
344 339 324 339 320 286 318 80 272 306 275 327 342 333 316 9 358 10 4 11 354 234 230 221 222 223 223 225 243 242 239 238 241 237 235 229 218 210 208 230 212 213 210 202 202 212 211 206 196
347 343 327 326 354 257 313 326 289 347 315 284 311 331 347 1 11 8 12 15 31 16 232 224 219 224 226 232 236 236 234 240 244 240 238 237 224 228 206 209 218 209 203 204 205 204 199 200 200
330 327 141 271 293 295 293 246 147 324 344 318 15 359 335 359 5 18 13 2 346 355 7 268 221 226 226 226 226 227 227 239 244 244 238 240 233 220 216 206 212 205 202 203 205 199 194 197 197
298 322 244 137 239 276 250 286 43 24 357 334 350 331 345 342 8 356 24 35 9 338 341 4 256 225 224 221 218 224 227 234 239 238 233 234 234 233 229 220 220 207 205 200 199 199 193 194 199
333 281 0 43 307 285 281 303 211 339 242 325 302 330 2 6 359 356 0 359 342 328 347 290 8 334 219 220 207 218 219 231 238 231 230 231 237 243 234 223 221 216 193 191 202 197 187 189 191
309 13 346 202 215 241 303 264 211 231 1 322 348 7 3 358 349 344 337 323 330 321 310 255 288 139 88 226 218 217 211 217 234 248 238 226 234 244 240 240 213 202 198 185 194 197 187 188 186
256 163 283 195 284 233 262 287 256 93 347 337 20 358 347 339 329 322 321 320 312 308 291 296 310 260 218 204 133 221 200 215 232 260 249 236 231 236 240 237 209 204 163 199 209 201 187 184 177
Wind_Speed_850mb
8 6 7 16 7 7 9 18 18 20 7 22 33 43 38 40 13 13 11 23 7 6 16 33 31 32 33 29 28 28 24 19 29 34 36 37 38 40 45 47 42 38 33 27 26 24 21 18 15
6 3 6 10 6 1 12 18 9 13 24 36 36 57 45 24 43 23 12 17 8 7 18 36 34 34 33 31 28 27 25 19 21 32 36 39 40 40 43 43 41 36 30 26 25 20 17 13 11
5 6 6 8 7 10 11 4 3 10 23 24 14 32 23 17 23 13 15 12 10 4 9 35 37 36 35 32 28 27 25 22 23 29 34 36 40 41 41 41 39 34 28 23 19 15 12 10 9
11 5 11 2 17 23 20 23 3 9 17 19 23 16 25 20 16 16 16 16 8 16 10 35 42 37 37 34 30 28 27 23 20 26 30 34 37 39 38 38 37 33 27 20 13 9 7 7 7
8 10 3 6 17 21 28 39 9 9 9 31 27 15 32 32 35 20 25 21 19 24 18 19 41 38 37 36 32 30 29 26 22 24 29 32 34 35 35 34 33 30 25 18 11 8 6 4 3
9 6 6 8 18 17 16 13 18 16 28 47 39 17 24 36 29 15 6 8 9 14 16 17 40 42 39 38 36 32 31 30 26 25 28 31 34 36 36 35 32 28 24 18 14 11 8 6 5
10 3 11 16 21 20 22 51 22 18 28 27 24 6 29 25 22 15 4 4 5 16 17 22 30 46 43 40 39 36 35 33 31 30 30 32 35 37 36 35 33 30 24 19 15 13 10 7 6
8 7 12 12 15 18 31 51 55 55 15 31 31 10 6 15 23 22 4 7 9 9 15 19 28 41 48 45 43 40 37 36 34 33 32 33 36 38 37 36 35 31 26 20 17 15 12 9 7
10 6 8 9 13 15 38 25 52 42 45 36 28 24 32 39 40 24 20 15 17 21 20 15 27 34 47 50 47 45 42 39 38 37 35 36 38 40 39 38 35 31 27 23 19 16 14 11 5
7 4 11 9 8 12 33 21 32 24 36 35 39 36 36 39 37 36 32 28 28 30 27 25 25 32 47 59 55 51 48 47 44 43 42 39 39 40 40 41 38 34 29 25 22 19 16 10 4
3 4 18 35 14 18 27 30 29 18 9 34 43 46 47 49 46 41 24 16 36 40 40 33 31 29 35 58 58 55 54 52 50 47 45 42 42 42 42 44 43 39 35 29 24 21 15 10 9
6 24 31 32 24 24 15 48 26 26 33 37 42 43 42 48 51 52 46 31 24 26 41 30 40 43 33 54 53 57 58 57 56 52 50 48 48 44 46 45 42 39 34 31 26 21 15 13 15
15 18 45 44 49 47 46 39 40 42 39 40 39 44 49 51 49 51 52 48 43 33 19 35 44 51 48 52 51 49 57 59 58 56 54 53 53 48 42 42 34 27 35 33 27 21 17 8 18
32 41 42 54 60 65 36 44 49 48 45 47 49 53 59 52 49 44 49 56 55 50 30 29 35 42 56 65 57 60 51 56 57 60 58 57 59 54 45 40 36 20 19 30 16 22 14 14 13
43 29 32 48 49 23 29 13 12 38 46 50 60 62 50 41 51 55 49 55 54 60 55 57 49 41 51 71 67 56 64 51 56 59 59 58 63 60 53 45 40 28 22 24 20 16 15 19 21
27 17 17 18 20 30 25 16 21 56 60 63 65 63 59 50 48 56 51 53 52 49 48 58 57 46 45 62 69 64 58 57 51 52 54 52 64 65 56 51 48 36 32 27 32 28 33 29 21
13 11 19 20 27 22 19 37 31 51 46 43 47 53 54 56 63 61 57 56 55 56 57 46 62 57 45 54 61 71 69 69 65 59 57 52 60 74 59 58 59 47 36 48 43 39 35 25 26
13 16 15 27 26 28 21 21 30 44 52 54 61 67 71 72 74 65 64 69 62 59 61 58 54 55 52 50 60 68 75 60 65 72 71 61 60 80 67 59 61 54 48 52 54 48 41 28 22
12 18 26 33 17 26 28 35 48 46 56 61 70 74 76 81 82 81 83 70 71 64 65 57 51 59 59 55 64 63 82 87 66 78 86 70 66 68 77 66 65 59 63 56 49 40 41 38 28
18 26 22 23 27 28 27 41 50 42 41 35 45 45 45 32 47 79 78 77 71 78 77 70 73 61 67 63 67 70 69 81 76 68 78 78 72 65 77 75 72 63 66 61 51 44 42 36 36
24 20 12 19 31 33 24 38 37 33 21 42 53 57 61 53 46 54 66 74 74 69 69 75 74 72 66 65 62 63 67 72 88 81 68 77 77 75 69 79 79 69 67 63 55 47 46 46 36
29 13 18 25 25 34 6 29 36 15 23 31 49 69 76 74 45 40 56 68 76 75 77 74 68 69 66 65 60 61 71 79 80 100 84 68 82 76 67 71 74 65 70 58 59 51 51 43 45
13 18 18 24 30 19 28 14 14 14 15 28 28 66 88 71 53 31 42 49 69 67 77 69 65 62 65 63 54 60 67 72 67 80 98 80 79 84 74 68 77 70 68 57 58 54 49 48 37
41 29 36 13 12 16 5 3 8 9 11 12 38 53 55 73 65 44 32 34 51 66 67 73 66 66 63 60 60 63 70 67 65 74 82 95 76 73 73 59 76 74 63 59 54 55 45 52 41
28 19 14 10 7 14 10 18 12 16 22 16 18 48 48 70 68 66 57 35 46 51 53 73 68 66 63 64 63 53 70 68 64 66 77 76 79 71 73 75 76 75 68 68 55 57 48 51 48
19 10 6 11 5 29 27 11 6 7 36 49 28 58 50 60 55 50 65 46 18 49 31 28 72 74 66 68 58 52 57 61 59 58 65 69 68 65 78 71 86 85 68 69 62 57 55 55 46
14 11 3 4 9 9 10 3 4 23 27 28 32 42 48 48 46 45 53 51 37 39 32 37 16 68 69 71 59 54 51 53 50 43 50 57 61 69 72 71 76 83 74 68 68 64 60 53 54
29 13 4 3 7 11 10 12 5 7 7 10 11 26 44 50 57 55 37 34 33 52 33 31 16 5 50 61 58 53 41 44 40 38 44 46 51 64 65 63 64 79 77 72 61 63 57 54 51
26 5 5 7 6 5 11 8 14 14 8 12 8 38 51 59 61 57 59 44 43 51 31 11 27 4 4 64 55 48 45 36 26 30 39 36 44 44 56 57 47 60 84 65 58 62 55 53 51
24 1 30 5 17 10 13 32 22 3 25 22 22 37 49 56 76 70 60 57 51 50 35 29 16 14 9 15 6 29 39 27 21 23 32 37 35 35 37 40 40 40 47 49 67 62 56 54 50
Wind_Direction_850mb
261 305 347 311 38 83 263 262 250 357 42 41 66 88 82 48 62 129 98 39 3 301 181 174 165 158 159 162 156 150 149 145 142 146 148 152 151 152 155 157 156 153 149 143 145 140 138 141 137
312 140 284 276 111 304 269 250 71 61 35 30 52 95 73 77 94 75 125 32 40 155 167 180 175 165 166 166 164 157 152 154 148 152 156 156 155 157 160 163 163 161 157 147 144 143 144 145 141
37 347 313 161 195 214 249 231 266 93 87 52 42 65 83 104 84 99 97 35 177 206 189 191 182 174 171 170 169 163 161 163 154 161 163 163 161 162 165 168 168 168 166 158 149 141 145 150 149
26 276 256 72 270 268 251 285 122 25 78 86 73 64 75 102 93 114 111 80 221 182 162 189 187 181 175 175 174 169 168 170 166 166 172 171 169 168 170 172 174 176 177 175 169 156 153 159 157
323 276 246 261 264 266 277 270 148 95 18 76 77 77 114 107 100 82 94 66 164 168 175 167 197 191 183 179 179 177 174 176 175 174 177 178 176 175 175 179 184 185 186 190 196 191 199 194 195
304 240 0 270 267 277 305 24 88 53 31 37 34 78 93 112 105 74 83 161 183 200 186 187 198 202 194 184 183 183 180 179 182 182 182 185 183 182 183 186 189 193 198 203 205 209 218 210 226
188 78 245 275 285 305 13 2 32 36 29 36 43 70 109 96 94 75 11 146 226 250 226 217 200 201 203 194 188 188 187 185 186 187 187 188 189 189 191 191 192 195 199 207 215 221 223 223 249
314 103 304 276 284 292 9 360 14 10 7 7 27 28 346 49 17 0 348 267 226 268 266 208 206 205 208 205 194 192 192 192 193 194 192 191 193 196 197 198 198 199 204 213 217 221 227 242 252
271 38 272 312 20 307 4 7 353 350 356 349 342 328 314 314 317 283 293 277 238 227 243 232 220 219 217 212 203 195 195 196 198 198 197 196 197 200 202 205 206 210 214 217 214 219 229 232 248
144 114 261 351 358 353 332 360 334 345 333 329 323 316 306 305 308 300 260 248 241 236 244 247 242 224 223 211 211 199 197 199 200 201 201 201 202 205 207 210 211 216 218 218 217 217 223 231 208
22 288 299 316 349 342 313 313 319 323 315 315 312 312 309 305 301 309 309 256 251 251 235 229 238 226 220 209 212 207 202 202 203 205 206 205 206 207 210 214 213 215 216 218 217 221 226 230 219
17 315 301 275 313 317 298 308 300 294 287 297 303 306 299 297 295 292 290 280 288 263 237 224 214 220 218 220 215 215 210 206 207 207 207 207 210 206 216 216 217 220 222 220 218 226 237 235 197
344 312 315 319 307 298 293 269 265 268 275 286 282 278 281 277 276 280 281 276 270 264 238 230 216 215 214 217 222 223 221 216 212 212 211 208 211 209 220 219 216 227 231 224 222 221 198 184 208
298 301 306 299 289 285 268 265 258 256 263 270 267 260 266 266 266 264 270 272 261 260 250 234 222 229 218 210 220 227 229 226 221 219 216 210 208 212 216 220 211 212 214 207 200 206 205 220 260
295 296 289 279 275 272 318 315 263 278 286 271 255 257 267 264 255 253 257 266 262 250 244 257 237 229 229 218 225 225 228 230 225 222 220 213 206 207 210 219 214 212 184 186 191 195 221 231 252
275 274 280 279 350 330 359 281 298 318 313 311 308 301 292 287 287 256 243 250 262 255 249 243 240 230 225 225 225 214 216 228 226 225 222 213 209 203 209 213 210 213 214 203 197 203 221 235 192
273 268 319 320 346 324 328 302 296 298 296 300 308 307 301 293 280 271 250 240 244 256 254 242 228 240 235 237 236 225 210 220 222 223 225 219 211 202 208 213 207 204 211 199 200 207 218 228 191
317 329 313 307 307 292 303 302 314 327 322 309 301 296 290 284 280 278 275 250 238 243 248 246 230 229 239 237 240 236 218 215 220 220 223 224 216 206 206 210 201 204 206 211 216 222 209 198 171
321 304 288 290 310 354 332 318 306 315 302 289 284 277 270 265 267 268 266 265 239 233 235 242 239 235 230 231 236 236 230 219 217 213 219 222 217 215 211 206 205 205 208 216 217 205 201 202 214
296 276 294 304 337 326 322 300 292 293 282 313 312 315 286 291 296 266 256 255 245 233 231 237 241 233 229 238 242 243 241 231 221 216 220 217 216 220 218 208 204 206 207 211 213 202 201 206 214
293 301 302 312 319 295 289 277 290 288 311 315 303 296 304 292 291 298 263 248 248 243 239 234 237 230 229 231 242 244 244 241 231 222 224 219 217 220 222 212 205 206 210 211 207 203 206 205 207
285 303 324 315 312 292 26 307 310 344 348 338 326 337 331 298 284 320 269 246 244 243 240 233 229 228 223 224 239 239 242 234 234 226 224 220 223 215 220 216 208 211 213 210 202 205 212 208 211
305 323 322 318 303 321 309 269 322 351 336 342 341 342 351 317 304 338 317 326 247 234 233 223 222 222 220 223 243 240 241 238 242 239 226 220 217 210 218 217 208 212 218 217 202 209 210 209 203
344 339 324 339 320 286 318 80 272 306 275 327 342 333 316 9 358 10 4 11 354 234 230 221 222 223 223 225 243 242 239 238 241 237 235 229 218 210 208 230 212 213 210 202 202 212 211 206 196
347 343 327 326 354 257 313 326 289 347 315 284 311 331 347 1 11 8 12 15 31 16 232 224 219 224 226 232 236 236 234 240 244 240 238 237 224 228 206 209 218 209 203 204 205 204 199 200 200
330 327 141 271 293 295 293 246 147 324 344 318 15 359 335 359 5 18 13 2 346 355 7 268 221 226 226 226 226 227 227 239 244 244 238 240 233 220 216 206 212 205 202 203 205 199 194 197 197
298 322 244 137 239 276 250 286 43 24 357 334 350 331 345 342 8 356 24 35 9 338 341 4 256 225 224 221 218 224 227 234 239 238 233 234 234 233 229 220 220 207 205 200 199 199 193 194 199
333 281 0 43 307 285 281 303 211 339 242 325 302 330 2 6 359 356 0 359 342 328 347 290 8 334 219 220 207 218 219 231 238 231 230 231 237 243 234 223 221 216 193 191 202 197 187 189 191
309 13 346 202 215 241 303 264 211 231 1 322 348 7 3 358 349 344 337 323 330 321 310 255 288 139 88 226 218 217 211 217 234 248 238 226 234 244 240 240 213 202 198 185 194 197 187 188 186
256 163 283 195 284 233 262 287 256 93 347 337 20 358 347 339 329 322 321 320 312 308 291 296 310 260 218 204 133 221 200 215 232 260 249 236 231 236 240 237 209 204 163 199 209 201 187 184 177